GIA224 OBBI-WIII

Flight info

Callsign GIA224
Flight time N/A
Altitude 33000
Route BHR N685 KINID M444 TULUB B457 EMISA N685 RURAL B415 SIXIV N318 REXOD N563 LEKAP/N0498F350 N563 ISVUR A585 PLB G461 BIDAK
Aircraft B77W/H-SDE1E2E3FGHIJ2J3J4J5M1RWXY/LB1D1

Departure

Time 2026-05-04 15:36
Airport Bahrain International Airport (OBBI)

Arrival

Time N/A
Airport Soekarno-Hatta International Airport (WIII)
Time Latitude Longitude Altitude Speed Heading
2026-05-04 15:12 26.26546 50.63538 26 ft 0 kts 213°
2026-05-04 15:26 26.26552 50.63542 26 ft 2 kts 208°
2026-05-04 15:27 26.26566 50.63551 31 ft 2 kts 210°
2026-05-04 15:27 26.26595 50.63568 32 ft 2 kts 202°
2026-05-04 15:28 26.26627 50.63576 32 ft 2 kts 164°
2026-05-04 15:28 26.26641 50.63567 24 ft 2 kts 127°
2026-05-04 15:28 26.26645 50.63562 32 ft 0 kts 123°
2026-05-04 15:30 26.26643 50.63564 32 ft 2 kts 123°
2026-05-04 15:30 26.26583 50.63868 29 ft 17 kts 118°
2026-05-04 15:31 26.26462 50.64089 27 ft 17 kts 123°
2026-05-04 15:31 26.26397 50.64197 27 ft 17 kts 123°
2026-05-04 15:32 26.26208 50.64523 30 ft 17 kts 123°
2026-05-04 15:32 26.26083 50.64742 28 ft 17 kts 122°
2026-05-04 15:33 26.26033 50.64931 26 ft 2 kts 66°
2026-05-04 15:34 26.26151 50.64972 26 ft 14 kts 316°
2026-05-04 15:34 26.26191 50.64910 26 ft 0 kts 303°
2026-05-04 15:35 26.26200 50.64894 23 ft 11 kts 303°
2026-05-04 15:35 26.26353 50.64629 20 ft 74 kts 303°
2026-05-04 15:35 26.26745 50.63950 23 ft 133 kts 302°
2026-05-04 15:36 26.28084 50.61686 221 ft 195 kts 306°
2026-05-04 15:36 26.28958 50.60591 811 ft 190 kts 326°
2026-05-04 15:36 26.30204 50.60038 1086 ft 197 kts 347°
2026-05-04 15:37 26.31553 50.59688 1551 ft 199 kts 348°
2026-05-04 15:37 26.32943 50.59321 1784 ft 215 kts 348°
2026-05-04 15:37 26.34455 50.58925 1988 ft 231 kts 348°
2026-05-04 15:37 26.36064 50.58508 2302 ft 242 kts 351°
2026-05-04 15:38 26.37764 50.58559 2579 ft 252 kts 18°
2026-05-04 15:38 26.39258 50.59600 3022 ft 260 kts 47°
2026-05-04 15:38 26.40131 50.61378 3561 ft 267 kts 72°
2026-05-04 15:38 26.40435 50.63453 4061 ft 275 kts 81°
2026-05-04 15:39 26.40303 50.65586 4523 ft 285 kts 108°
2026-05-04 15:39 26.39200 50.67439 4965 ft 292 kts 133°
2026-05-04 15:39 26.36268 50.70702 5943 ft 301 kts 133°
2026-05-04 15:40 26.34800 50.72379 6480 ft 304 kts 133°
2026-05-04 15:40 26.33334 50.74094 6993 ft 307 kts 132°
2026-05-04 15:40 26.31865 50.75844 7538 ft 310 kts 132°
2026-05-04 15:40 26.30396 50.77614 8052 ft 313 kts 132°
2026-05-04 15:41 26.28916 50.79413 8564 ft 316 kts 132°
2026-05-04 15:41 26.27426 50.81231 9076 ft 320 kts 132°
2026-05-04 15:41 26.25920 50.83074 9606 ft 323 kts 133°
2026-05-04 15:41 26.24405 50.84929 10100 ft 325 kts 133°
2026-05-04 15:42 26.22862 50.86820 10433 ft 337 kts 133°
2026-05-04 15:42 26.21262 50.88780 10567 ft 356 kts 133°
2026-05-04 15:42 26.19553 50.90873 10713 ft 375 kts 133°
2026-05-04 15:42 26.17756 50.93075 10865 ft 394 kts 133°
2026-05-04 15:43 26.15872 50.95382 10948 ft 406 kts 133°
2026-05-04 15:43 26.13963 50.97717 10989 ft 409 kts 133°
2026-05-04 15:43 26.12092 51.00108 11010 ft 411 kts 128°
2026-05-04 15:43 26.10451 51.02710 11011 ft 410 kts 121°
2026-05-04 15:44 26.09088 51.05487 11012 ft 408 kts 116°
2026-05-04 15:44 26.07805 51.08305 11014 ft 408 kts 116°
2026-05-04 15:44 26.06523 51.11118 11009 ft 408 kts 116°
2026-05-04 15:44 26.05233 51.13930 11012 ft 408 kts 117°
2026-05-04 15:45 26.03936 51.16737 11011 ft 408 kts 117°
2026-05-04 15:45 26.02634 51.19544 11010 ft 409 kts 117°
2026-05-04 15:45 26.01329 51.22350 11009 ft 409 kts 117°
2026-05-04 15:45 26.00022 51.25156 11007 ft 409 kts 117°
2026-05-04 15:46 25.98713 51.27965 11009 ft 409 kts 117°
2026-05-04 15:46 25.97406 51.30769 11008 ft 409 kts 117°
2026-05-04 15:46 25.96082 51.33564 11006 ft 409 kts 117°
2026-05-04 15:46 25.94734 51.36353 11007 ft 409 kts 118°
2026-05-04 15:47 25.93381 51.39136 11008 ft 409 kts 118°
2026-05-04 15:47 25.92031 51.41912 11004 ft 409 kts 118°
2026-05-04 15:47 25.90680 51.44694 11006 ft 409 kts 118°
2026-05-04 15:47 25.89325 51.47489 11307 ft 414 kts 118°
2026-05-04 15:48 25.87960 51.50304 12086 ft 413 kts 118°
2026-05-04 15:48 25.86597 51.53116 12875 ft 414 kts 118°
2026-05-04 15:48 25.83850 51.58778 14179 ft 420 kts 119°
2026-05-04 15:49 25.82460 51.61641 14766 ft 423 kts 119°
2026-05-04 15:49 25.81060 51.64523 15375 ft 426 kts 119°
2026-05-04 15:49 25.79648 51.67427 15982 ft 429 kts 119°
2026-05-04 15:49 25.78225 51.70350 16591 ft 432 kts 120°
2026-05-04 15:50 25.76764 51.73269 17203 ft 434 kts 121°
2026-05-04 15:50 25.75265 51.76194 17781 ft 438 kts 121°
2026-05-04 15:50 25.73749 51.79140 18319 ft 441 kts 121°
2026-05-04 15:50 25.72229 51.82107 18820 ft 444 kts 121°
2026-05-04 15:51 25.70718 51.85064 19310 ft 448 kts 121°
2026-05-04 15:51 25.69148 51.88057 19792 ft 451 kts 123°
2026-05-04 15:51 25.67491 51.91021 20283 ft 455 kts 124°